Terminal Aerodrome Forecast
Issued by NWS

Home | Current Version | Previous Version | Text Only | Print | Product List | Glossary On
Versions: 1 2 3 4 5 6 7 8 9 10 11 12 13 14 15 16 17 18 19 20 21
892
FTUS43 KILX 291556 AAB
TAFCMI
TAF AMD
KCMI 291556Z 2916/3012 10014G24KT P6SM SCT015
     FM291900 08014G24KT P6SM OVC025
     FM300200 09014G21KT 6SM BR VCSH OVC025
     FM300500 11012G21KT 5SM -SHRA VCTS OVC025CB
     FM300900 12015G22KT 3SM SHRA VCTS OVC008CB=

USA.gov is the U.S. government's official web portal to all federal, state and local government web resources and services.